Theta_e
320 321 323 327 326 327 330 338 340 339 334 350 351 352 352 349 350 350 349 350 349 348 345 346 347 347 348 347 349 349 350 353 356 356 355 356 356 355 352 350 351 352 351 350
320 323 325 329 330 329 328 335 340 340 336 337 351 354 351 351 352 351 351 352 351 351 347 347 348 348 349 349 349 350 351 354 355 355 355 353 353 352 352 353 353 352 348 348
320 322 328 331 331 331 327 337 338 340 340 340 349 351 350 351 350 348 349 351 350 352 350 349 350 350 351 350 350 352 354 354 355 356 355 355 355 353 352 350 353 350 347 343
320 323 326 331 331 330 325 328 338 342 342 344 342 353 346 347 346 344 347 348 350 351 352 351 350 349 351 352 351 354 354 356 355 357 354 354 348 347 345 348 351 341 333 334
321 324 325 327 330 328 326 327 327 342 341 338 345 345 348 340 340 339 344 348 348 350 352 352 351 350 352 353 354 354 355 355 355 355 354 356 344 340 343 346 338 334 337 337
321 324 325 327 328 326 327 328 324 326 327 335 340 338 339 344 343 340 339 348 346 348 352 352 352 350 353 354 355 355 356 356 354 357 350 346 333 336 340 339 337 336 337 334
322 323 324 326 324 324 326 321 323 325 325 325 322 342 339 342 341 338 339 348 346 347 348 349 348 348 355 356 356 357 357 355 355 349 337 331 330 332 333 334 334 338 336 339
320 322 324 324 323 323 322 321 323 328 332 328 325 329 329 340 341 337 339 346 346 346 346 346 345 347 352 355 355 355 357 356 355 340 331 334 336 336 333 336 336 336 334 336
320 321 324 323 325 322 323 324 323 327 328 330 329 331 338 339 340 338 337 340 342 345 345 345 345 347 351 353 355 356 355 356 350 346 336 337 336 336 336 338 340 335 333 336
318 320 322 324 324 324 324 323 327 323 329 331 330 334 335 344 342 340 339 337 337 342 345 344 345 346 351 351 354 356 354 354 351 342 340 336 337 332 339 339 337 332 337 335
318 320 322 324 323 324 327 327 324 323 325 328 329 330 331 342 341 342 340 339 335 339 342 343 344 345 350 351 354 356 353 352 349 341 340 338 340 340 336 336 334 331 333 335
318 317 321 322 323 323 325 325 324 326 327 325 326 331 334 334 334 339 340 340 335 335 339 341 341 343 347 349 354 355 353 352 349 342 340 340 342 342 340 338 337 335 336 335
321 317 322 322 322 324 326 325 327 322 322 327 330 332 333 330 331 330 330 330 331 334 335 340 340 341 346 348 353 354 353 352 349 344 344 342 343 343 338 336 337 336 336 335
326 317 320 323 323 325 326 326 326 324 325 325 329 332 333 334 333 332 331 331 332 335 336 341 341 341 346 348 352 353 353 352 349 345 344 342 342 336 335 336 337 336 335 336
320 320 323 323 325 328 327 327 326 326 325 328 326 331 330 334 333 332 332 334 335 334 340 338 343 344 346 348 351 352 352 351 349 345 345 343 338 337 336 336 335 335 335 336
318 322 323 325 326 326 326 328 328 329 328 329 327 334 330 332 334 332 333 332 333 336 341 343 341 346 347 349 350 351 350 349 345 343 344 343 340 339 337 336 336 336 335 337
322 322 323 325 327 328 330 330 328 330 335 329 327 326 332 334 333 331 330 329 330 331 333 338 347 346 350 351 350 347 347 347 346 343 342 341 340 338 337 337 337 337 336 336
324 322 321 325 325 329 326 330 334 336 336 335 331 333 333 334 332 329 327 328 329 329 329 328 331 343 351 353 350 346 344 344 343 341 341 340 340 339 338 338 338 337 337 337
331 332 335 326 324 326 332 332 335 335 337 337 336 333 331 331 333 335 329 328 328 328 330 332 335 339 347 351 349 344 341 342 341 340 340 340 340 340 339 338 337 337 337 338
329 331 337 337 331 331 333 336 334 333 337 334 335 334 333 333 336 334 333 331 332 332 334 336 338 344 350 349 345 342 341 340 339 339 339 339 339 339 338 337 337 337 338 338
334 335 335 337 336 332 335 338 334 334 335 334 332 331 332 334 333 332 330 332 332 334 337 339 343 349 349 346 343 341 339 339 340 340 339 338 340 339 338 338 338 339 338 338
342 343 340 337 335 336 334 336 343 336 333 333 333 333 334 333 332 331 330 327 328 332 333 338 342 349 347 344 343 341 339 340 340 338 338 335 333 337 341 339 340 338 337 334
342 339 344 343 341 335 333 333 332 331 330 332 330 331 331 332 333 333 333 331 329 329 331 336 339 348 347 344 342 336 335 339 336 334 330 327 326 327 327 337 339 336 331 329
337 336 340 339 337 339 336 332 331 331 332 331 330 331 330 332 333 334 335 337 340 340 338 345 342 338 337 338 336 334 332 333 333 329 328 328 327 327 331 336 336 332 331 329
336 334 339 340 340 335 333 331 330 331 331 331 329 329 330 331 342 345 343 341 338 336 337 338 337 335 331 331 330 331 331 332 330 330 329 328 327 328 334 333 332 331 327 323
332 334 337 337 336 332 332 330 328 325 326 325 324 323 323 327 333 344 343 340 336 334 335 335 335 334 330 328 329 328 327 327 327 326 326 327 327 331 332 328 322 320 320 320
Wind_Speed
4 3 6 9 8 6 4 8 14 11 11 7 15 13 19 16 14 15 13 11 13 15 16 25 31 32 32 29 27 27 22 20 22 19 15 13 13 12 12 11 10 9 5 3
4 7 11 6 5 6 4 7 9 1 10 7 13 18 18 19 20 18 16 14 15 9 12 18 23 28 30 30 28 25 24 22 24 19 16 13 10 9 8 6 5 7 5 4
7 8 6 5 8 5 6 8 10 11 5 7 11 1 9 14 14 14 13 18 19 18 16 14 18 24 29 29 28 27 26 23 22 17 14 13 10 9 8 9 12 11 5 3
6 13 9 8 8 6 8 10 14 9 15 7 7 5 7 16 15 11 12 15 17 18 19 17 20 21 26 31 30 30 27 24 20 19 18 15 12 9 5 12 15 9 5 4
9 10 12 11 16 7 12 8 11 11 15 7 3 5 11 8 9 11 13 20 20 20 22 21 23 28 33 33 35 32 29 25 22 20 18 18 11 9 13 16 13 7 5 4
10 7 8 11 18 10 13 5 6 5 5 2 12 7 4 10 25 20 11 19 19 19 22 21 30 30 32 34 35 33 31 28 24 22 19 20 16 14 16 15 13 10 5 3
4 16 12 10 7 8 4 6 2 2 1 6 8 9 12 20 24 17 20 22 21 21 20 20 21 23 30 33 34 37 35 32 27 27 23 17 12 10 12 12 11 9 9 10
9 11 14 6 11 11 8 10 6 7 3 6 9 7 11 17 25 20 19 25 22 20 21 22 22 28 31 35 36 36 38 36 34 30 23 17 17 14 9 11 9 11 10 10
6 8 8 11 12 10 9 4 10 7 1 3 4 8 7 8 16 16 15 16 20 21 21 22 23 30 32 36 38 40 43 42 39 33 26 22 19 15 14 14 14 11 9 9
8 5 8 14 5 7 16 7 3 3 7 4 5 4 6 5 11 11 12 14 17 19 20 19 19 31 36 39 41 41 45 45 43 36 31 28 21 17 16 15 14 12 11 10
13 5 15 2 6 11 2 3 4 6 5 6 3 6 7 16 17 17 16 17 14 17 20 20 19 31 36 36 36 38 39 40 43 39 34 30 25 21 20 16 12 11 11 10
10 7 14 18 12 8 9 10 7 6 5 2 5 6 5 13 12 17 17 13 10 18 18 20 19 29 31 34 33 37 37 38 41 40 37 34 26 24 25 21 15 12 13 12
12 6 8 9 7 3 8 6 7 5 5 7 6 5 2 6 4 8 10 8 9 12 13 17 17 16 29 34 34 34 35 37 36 39 38 35 28 28 27 23 19 17 15 15
14 6 10 15 9 5 6 8 7 8 5 6 6 5 4 7 10 8 11 12 10 10 16 17 17 18 28 33 34 35 34 36 39 41 41 39 32 32 27 23 23 21 20 19
11 10 7 9 18 10 15 14 9 6 9 9 8 11 10 11 13 12 11 10 10 10 9 14 16 16 23 27 30 30 30 36 45 42 40 40 37 32 26 26 26 25 24 22
6 8 10 17 9 8 8 6 11 8 5 1 7 7 10 12 9 8 13 9 8 6 7 9 9 14 17 29 30 33 35 34 34 37 40 39 36 30 30 28 27 26 25 23
10 7 5 9 7 7 4 5 5 1 4 5 7 12 11 5 7 9 9 10 10 10 8 8 10 10 19 26 30 30 34 38 44 45 41 39 36 33 35 32 29 28 28 25
6 8 3 5 4 5 7 2 13 10 5 7 6 8 19 13 8 8 7 9 10 10 8 8 7 13 27 32 28 27 34 39 39 34 37 40 38 40 39 35 33 29 28 28
2 5 4 5 5 4 3 4 6 7 4 6 3 7 9 11 7 4 4 5 9 7 6 4 6 11 24 27 31 35 33 37 33 35 42 40 41 40 38 37 34 32 30 30
10 8 5 3 6 4 2 6 5 8 6 8 6 9 7 6 7 3 1 7 7 8 10 9 10 11 17 26 32 33 33 32 30 36 44 40 40 37 37 40 36 32 30 28
5 5 4 3 4 1 5 8 2 8 6 6 5 7 6 7 4 1 3 4 6 8 13 14 13 19 26 29 30 28 30 31 37 36 36 31 28 40 44 37 30 27 24 16
4 3 3 4 4 4 15 8 7 5 3 7 9 5 10 6 6 6 7 7 6 3 7 16 14 19 24 31 30 24 19 16 18 13 7 11 14 18 23 28 23 19 12 9
3 5 4 4 3 5 8 7 1 1 5 7 9 7 8 6 3 1 4 3 7 9 9 18 12 12 18 23 26 26 20 25 25 23 18 24 19 26 39 24 15 13 11 5
5 2 4 6 5 5 5 3 5 7 8 7 6 4 6 5 6 7 6 5 5 8 8 10 17 16 16 26 31 31 25 26 25 21 17 16 15 4 30 20 14 13 10 11
4 2 6 2 2 2 4 4 3 6 8 7 8 4 5 8 9 5 5 4 3 5 6 9 13 17 19 30 32 31 29 21 14 16 19 24 22 29 28 15 13 14 13 8
2 6 5 4 4 4 6 5 4 10 4 1 1 7 6 7 4 3 5 1 5 6 14 16 15 21 23 29 27 21 20 20 21 20 17 20 28 24 24 18 12 10 9 8
Wind_Direction
251 119 216 232 199 196 211 138 179 195 151 125 156 160 175 177 183 191 185 174 174 177 181 173 178 183 189 191 187 190 191 197 200 200 211 222 228 238 244 252 255 255 218 218
305 222 229 228 215 233 217 194 191 193 161 112 164 171 181 181 195 194 185 174 173 154 163 173 170 174 183 186 188 191 194 196 195 205 210 215 228 240 240 246 215 186 204 196
189 242 222 221 268 280 285 194 199 190 146 74 128 176 188 204 198 204 197 182 174 163 168 176 178 177 184 187 191 192 194 193 195 203 202 209 223 233 238 222 195 191 186 221
206 246 241 234 244 186 270 218 215 168 157 160 177 207 240 196 196 205 188 183 185 173 171 176 183 184 190 195 196 194 194 195 203 204 201 206 217 221 192 181 176 169 172 155
231 220 228 238 239 189 241 218 200 168 175 107 191 103 213 138 209 216 198 196 186 179 177 180 183 183 194 193 195 193 193 197 200 203 209 211 197 172 177 168 168 172 165 234
212 250 179 220 247 227 246 254 49 54 98 136 206 158 249 187 208 210 219 198 191 184 182 182 185 183 186 192 192 196 193 196 200 205 201 193 187 171 160 173 182 174 178 236
303 243 248 217 242 272 159 69 312 327 132 204 195 191 234 208 216 203 199 194 193 186 180 177 182 177 179 184 190 195 196 196 198 195 191 193 190 192 194 198 187 178 154 154
218 255 226 216 191 221 201 156 156 195 256 261 136 211 245 201 206 202 195 192 191 183 184 183 184 182 180 183 189 190 194 196 195 193 194 197 200 198 193 192 191 194 189 177
173 247 263 223 225 163 244 146 188 138 84 70 256 300 330 192 195 188 179 174 189 188 185 186 187 187 187 187 189 190 192 193 194 198 196 194 191 200 209 212 197 201 202 193
219 269 246 254 191 246 193 178 93 0 166 202 281 260 229 189 182 192 192 184 186 190 188 188 190 192 193 193 192 192 194 193 197 196 194 191 195 195 198 195 203 205 198 209
197 145 262 23 213 216 89 132 65 122 140 162 226 269 218 199 187 187 199 208 171 181 191 190 195 196 196 196 192 193 192 193 196 195 192 196 201 200 199 207 206 207 212 227
197 175 236 248 249 238 169 174 148 142 230 155 166 263 261 183 184 181 200 200 186 184 186 193 194 192 193 195 191 193 192 194 197 194 193 201 205 205 202 205 208 215 224 233
198 210 236 297 330 345 184 169 145 110 93 184 142 254 134 56 116 170 163 188 193 177 183 194 190 191 193 194 194 193 191 195 193 196 195 201 204 207 204 204 214 218 226 238
162 146 193 226 214 187 201 174 161 142 142 174 203 191 150 176 166 167 169 164 178 174 174 182 190 197 195 194 196 193 192 191 191 196 198 201 198 200 202 205 209 218 228 235
162 187 159 215 223 215 211 194 160 151 183 171 216 180 203 186 177 180 173 169 170 182 164 184 193 198 197 195 197 194 190 189 194 191 197 199 200 203 206 207 216 223 226 234
175 222 156 226 235 221 172 205 170 152 138 10 159 211 198 195 155 167 174 161 153 165 180 175 208 202 196 195 194 189 189 188 180 188 196 198 206 205 208 209 217 221 227 233
155 147 123 215 157 121 89 132 231 307 54 182 176 221 154 156 180 166 158 157 153 147 135 164 184 191 206 205 197 188 187 184 187 190 194 200 206 209 213 215 217 223 229 233
157 127 113 174 110 138 232 207 107 93 4 332 252 181 176 174 168 164 168 148 154 145 162 168 172 200 204 204 199 189 185 183 181 189 198 201 201 216 218 216 220 227 232 237
18 109 87 134 141 200 36 56 150 133 338 320 183 92 129 126 99 7 216 155 159 164 159 183 220 234 215 202 189 182 177 179 180 189 202 203 207 213 215 219 224 229 234 240
48 60 97 79 120 156 231 294 357 98 19 325 71 95 111 79 97 253 338 129 135 159 155 180 221 231 199 189 182 174 178 178 180 191 206 206 213 218 218 224 226 230 236 245
12 8 56 71 120 314 285 299 227 74 220 313 65 55 51 94 150 223 66 53 158 175 184 202 210 202 199 182 175 181 175 183 189 201 201 211 219 221 224 226 228 229 238 235
76 46 349 357 56 33 352 313 86 197 37 59 38 72 85 64 30 23 36 347 340 12 278 218 198 204 195 179 172 170 151 144 147 154 125 67 16 338 268 229 231 246 217 172
56 146 151 92 145 257 313 49 14 152 96 56 62 29 69 76 39 143 237 269 322 298 282 247 218 142 166 164 169 130 134 141 135 125 104 73 43 360 329 312 259 180 172 202
17 67 104 120 190 281 317 9 359 51 70 47 55 28 58 48 342 7 2 314 312 318 306 158 137 121 119 132 137 133 128 137 132 119 92 104 110 148 265 255 197 181 201 212
145 166 98 251 79 57 356 317 148 82 61 42 19 17 46 27 8 32 15 340 351 6 24 126 137 129 114 127 128 135 134 141 154 166 180 176 185 194 218 203 199 213 212 192
151 179 176 203 142 119 255 258 264 87 98 308 41 351 7 72 251 256 117 308 198 105 90 68 75 97 107 122 130 143 148 143 156 176 191 187 189 214 200 193 170 160 138 126